Penn Yan, NY

6:22 AM EST on December 17, 2017 (GMT -0500)
Penn Yan

Weather History for KPEO - April, 2013

Change the Weather History Date:

Tuesday, April 9, 2013

  Actual Average (KITH) Record (KITH)
Temperature  
Mean Temperature 55 °F -  
Max Temperature 64 °F 48 °F 82 °F (1991)
Min Temperature 46 °F 29 °F 15 °F (1972)
Degree Days  
Heating Degree Days 10    
Growing Degree Days 5 (Base 50)    
Moisture  
Dew Point 43 °F    
Average Humidity 69    
Maximum Humidity 100    
Minimum Humidity 46    
Precipitation  
Precipitation 0.47 in - - ()
Sea Level Pressure  
Sea Level Pressure 29.98 in    
Wind  
Wind Speed 10 mph (WNW)    
Max Wind Speed 15 mph    
Max Gust Speed 24 mph    
Visibility 8 miles    
Events Rain , Thunderstorm    
Averages and records for this station are not official NWS values.
T = Trace of Precipitation, MM = Missing Value Source: NWS Daily Summary

Daily Weather History Graph

Daily Weather History Graph

Search for Another Location

Airport or City:

Trip Planner

Search our weather history database for the weather conditions in past years. The results will help you decide how hot, cold, wet, or windy it might be!

Date:

Astronomy

Apr. 09, 2013 Rise Set
Actual Time 6:36 AM EDT 7:43 PM EDT
Civil Twilight 6:07 AM EDT 8:12 PM EDT
Nautical Twilight 5:32 AM EDT 8:47 PM EDT
Astronomical Twilight 4:56 AM EDT 9:23 PM EDT
Moon 5:58 AM EDT (4/9) 7:17 PM EDT (4/9)
Length of Visible Light 14h 05m
Length of Day
13h 07m
Waning Crescent, 1% of the Moon is Illuminated
Apr 9
Waning Crescent
Apr 10
New
Apr 18
First Quarter
Apr 25
Full
May 2
Last Quarter

Hourly Weather History & Observations

Time (EDT) Temp. Windchill Dew Point Humidity Pressure Visibility Wind Dir Wind Speed Gust Speed Precip Events Conditions
12:53 AM 64.0 °F - 45.0 °F 50% 29.80 in 10.0 mi South 10.4 mph - N/A   Partly Cloudy
1:53 AM 64.0 °F - 46.0 °F 52% 29.80 in 10.0 mi SSW 12.7 mph 21.9 mph N/A   Clear
2:53 AM 64.9 °F - 46.9 °F 52% 29.81 in 10.0 mi SW 15.0 mph 24.2 mph N/A   Mostly Cloudy
3:53 AM 61.0 °F - 46.9 °F 60% 29.84 in 10.0 mi WSW 13.8 mph 20.7 mph N/A   Clear
4:53 AM 55.9 °F - 42.1 °F 60% 29.88 in 10.0 mi West 15.0 mph 21.9 mph N/A   Clear
5:53 AM 54.0 °F - 42.1 °F 64% 29.93 in 10.0 mi West 15.0 mph 23.0 mph N/A   Mostly Cloudy
6:20 AM 51.8 °F - 42.8 °F 71% 29.96 in 10.0 mi Variable 5.8 mph 20.7 mph N/A   Overcast
6:53 AM 51.1 °F - 41.0 °F 68% 30.00 in 10.0 mi West 8.1 mph - N/A   Overcast
7:53 AM 48.0 °F - 39.9 °F 74% 30.06 in 10.0 mi WNW 13.8 mph 23.0 mph N/A   Overcast
8:53 AM 46.9 °F - 39.9 °F 77% 30.09 in 10.0 mi West 9.2 mph 16.1 mph N/A   Overcast
9:53 AM 48.0 °F - 39.0 °F 71% 30.10 in 10.0 mi West 8.1 mph - N/A   Overcast
10:53 AM 50.0 °F - 39.0 °F 66% 30.11 in 10.0 mi West 10.4 mph - N/A   Mostly Cloudy
11:40 AM 53.6 °F - 39.2 °F 58% 30.10 in 10.0 mi WSW 9.2 mph - N/A   Partly Cloudy
11:53 AM 54.0 °F - 39.9 °F 59% 30.09 in 10.0 mi SSW 8.1 mph - N/A   Partly Cloudy
12:53 PM 55.0 °F - 39.9 °F 57% 30.07 in 10.0 mi Calm Calm - N/A   Clear
1:53 PM 59.0 °F - 41.0 °F 51% 30.04 in 10.0 mi Variable 3.5 mph - N/A   Clear
2:53 PM 61.0 °F - 41.0 °F 48% 30.03 in 10.0 mi Variable 5.8 mph - N/A   Clear
3:53 PM 61.0 °F - 41.0 °F 48% 30.01 in 10.0 mi NNE 5.8 mph - N/A   Clear
4:53 PM 62.1 °F - 41.0 °F 46% 29.97 in 10.0 mi ENE 4.6 mph - N/A   Clear
5:53 PM 61.0 °F - 41.0 °F 48% 29.98 in 10.0 mi NE 4.6 mph - N/A   Mostly Cloudy
6:53 PM 59.0 °F - 41.0 °F 51% 29.97 in 10.0 mi NNE 5.8 mph - 0.00 in   Overcast
7:53 PM 57.0 °F - 42.1 °F 57% 29.99 in 10.0 mi Calm Calm - 0.00 in Rain Light Rain
8:53 PM 48.9 °F - 44.1 °F 83% 29.98 in 9.0 mi Variable 4.6 mph - 0.01 in Rain Light Rain
9:53 PM 48.0 °F - 44.1 °F 86% 29.95 in 8.0 mi NE 5.8 mph - 0.01 in Rain Light Rain
10:53 PM 46.9 °F - 45.0 °F 93% 29.96 in 2.5 mi NNW 10.4 mph - 0.12 in Rain Heavy Rain
11:05 PM 46.4 °F 41.9 °F 44.6 °F 93% 29.99 in 2.5 mi NNW 9.2 mph 20.7 mph 0.08 in Rain , Thunderstorm Heavy Rain
11:13 PM 46.4 °F 40.4 °F 44.6 °F 93% 30.01 in 2.0 mi NW 13.8 mph 18.4 mph 0.14 in Rain , Thunderstorm Heavy Rain
11:23 PM 46.4 °F - 44.6 °F 93% 29.99 in 1.8 mi North - - 0.23 in Rain , Thunderstorm Heavy Rain
11:27 PM 48.2 °F - 46.4 °F 93% 30.00 in 1.8 mi North - - 0.25 in Rain Heavy Rain
11:34 PM 48.2 °F - 46.4 °F 93% 29.98 in 2.5 mi North - - 0.28 in Rain Heavy Rain
11:46 PM 46.4 °F - 46.4 °F 100% 29.94 in 3.0 mi North - - 0.32 in Rain Rain
11:53 PM 48.0 °F - 46.0 °F 93% 29.95 in 5.0 mi North - - 0.33 in Rain Light Rain